Home > Products > Valid Products > RWR

000
ASUS44 KHUN 010410
RWRHUN

WEATHER ROUNDUP FOR THE TENNESSEE VALLEY
NATIONAL WEATHER SERVICE HUNTSVILLE AL
1100 PM CDT TUE MAY 31 2016

ALZ001>004-010500-
NORTHWEST ALABAMA

CITY           SKY/WX    TMP DP  RH WIND       PRES   REMARKS
COURTLAND HCN    N/A     72 N/A N/A CALM        N/A
RUSSELLVILLE     N/A     66 N/A N/A MISG        N/A
SHOALS AIRPORT CLOUDY    73  66  78 CALM      29.97R
SHOALS TVA RES   N/A     73 N/A N/A MISG        N/A
$$

ALZ005>007-016-010500-
NORTH CENTRAL ALABAMA

CITY           SKY/WX    TMP DP  RH WIND       PRES   REMARKS
CULLMAN AG STN   N/A     68 N/A N/A CALM        N/A
DECATUR AP     CLOUDY    72  66  81 CALM      29.96S
HUNTSVILLE AP  PTCLDY    76  64  66 CALM      29.96S
HUN NWS/UAH      N/A     78  64  61 S1          N/A
MERIDIANVILLE  HAZE      72  63  73 CALM      29.97R VSB<1/4
REDSTONE ARSN  MOCLDY    72  66  81 SE3       29.95S
VINEMONT AP    FAIR      67  64  89 CALM      30.00S
$$

ALZ008>010-010500-
NORTHEAST ALABAMA

CITY           SKY/WX    TMP DP  RH WIND       PRES   REMARKS
FORT PAYNE     CLEAR     66  61  82 CALM      29.97S
SCOTTSBORO AP  CLEAR     72  66  83 CALM      29.97S
SCOTTSBORO HCN   N/A     68 N/A N/A MISG        N/A
VALLEY HEAD      N/A     66 N/A N/A MISG        N/A
$$

TNZ076-096-097-010500-
SOUTHEASTERN MIDDLE TENNESSEE

CITY           SKY/WX    TMP DP  RH WIND       PRES   REMARKS
TULLAHOMA      CLEAR     70  66  88 CALM      29.99S
WINCHESTER     CLEAR     72  64  78 CALM      29.98S
$$

...SURROUNDING SITES...

CITY           SKY/WX    TMP DP  RH WIND       PRES   REMARKS
ATLANTA        MOCLDY    79  64  60 SE5       29.98R
ANNISTON       PTCLDY    73  65  75 CALM      29.97R
BIRMINGHAM     CLOUDY    73  70  90 CALM      29.99R
CHATTANOOGA    MOCLDY    76  63  64 CALM      29.96R
DALTON         CLEAR     70  64  83 CALM      29.97R
GADSDEN        CLEAR     70  67  90 CALM      29.97R
GOLDEN TRNGL   CLOUDY    75  66  73 SE6       29.95S
HALEYVILLE     FAIR      68  65  90 CALM      29.99S
JACKSON TN     CLEAR     70  66  87 CALM      29.94S
MEMPHIS        CLOUDY    76  68  76 CALM      29.93S
NASHVILLE      PTCLDY    76  61  59 CALM      29.96S
OXFORD MS      FAIR      68  66  94 CALM      29.95F
ROME           CLEAR     70  64  81 SW3       29.95R
SAVANNAH       PTCLDY    68  68 100 CALM      29.95S
TUPELO         CLEAR     73  68  84 CALM      29.94R
TUSCALOOSA     CLOUDY    69  68  96 NE6       29.96S
$$

...GULF COAST WEATHER...

CITY           SKY/WX    TMP DP  RH WIND       PRES   REMARKS
GULFPORT       CLEAR     77  70  79 CALM      29.95R
PASCAGOULA     CLEAR     70  68  93 CALM      29.95R
MOBILE         PTCLDY    70  70 100 CALM      29.97R
GULF SHORES    CLEAR     72  72 100 W8        29.96R
DESTIN         MOCLDY    82  76  81 SW6       29.96R
PANAMA CITY    CLOUDY    79  74  85 SW7       29.97R
APPALACHICOLA  PTCLDY    75  74  96 W3        29.96R
$$







000
ASUS44 KHUN 312310
RWRHUN

WEATHER ROUNDUP FOR THE TENNESSEE VALLEY
NATIONAL WEATHER SERVICE HUNTSVILLE AL
600 PM CDT TUE MAY 31 2016

ALZ001>004-010000-
NORTHWEST ALABAMA

CITY           SKY/WX    TMP DP  RH WIND       PRES   REMARKS
RUSSELLVILLE     N/A     82 N/A N/A MISG        N/A
SHOALS AIRPORT PTSUNNY   85  62  46 CALM      29.89F
SHOALS TVA RES   N/A     86 N/A N/A MISG        N/A
$$

ALZ005>007-016-010000-
NORTH CENTRAL ALABAMA

CITY           SKY/WX    TMP DP  RH WIND       PRES   REMARKS
CULLMAN AG STN   N/A     86 N/A N/A NW3         N/A
DECATUR AP     PTSUNNY   86  64  47 VRB7      29.89F
HUNTSVILLE AP  PTSUNNY   89  64  43 NW6       29.89F HX  90
HUN NWS/UAH      N/A     88  58  36 W5          N/A
MERIDIANVILLE  MOSUNNY   88  50  27 NW8       29.89S
REDSTONE ARSN  PTSUNNY   86  65  49 NW9       29.88F
VINEMONT AP    FAIR      85  66  52 W6        29.93F
$$

ALZ008>010-010000-
NORTHEAST ALABAMA

CITY           SKY/WX    TMP DP  RH WIND       PRES   REMARKS
FORT PAYNE     SUNNY     86  55  35 SE5       29.89S
SCOTTSBORO AP  SUNNY     88  64  45 NE7       29.89F
SCOTTSBORO HCN   N/A     88 N/A N/A MISG        N/A
VALLEY HEAD      N/A     84 N/A N/A MISG        N/A
$$

TNZ076-096-097-010000-
SOUTHEASTERN MIDDLE TENNESSEE

CITY           SKY/WX    TMP DP  RH WIND       PRES   REMARKS
TULLAHOMA      SUNNY     84  57  39 CALM      29.93S
WINCHESTER     SUNNY     88  57  35 W3        29.91S
$$

...SURROUNDING SITES...

CITY           SKY/WX    TMP DP  RH WIND       PRES   REMARKS
ATLANTA        PTSUNNY   90  61  37 SE7       29.90S HX  90
ANNISTON       MOSUNNY   84  59  42 W9        29.89S
BIRMINGHAM     LGT RAIN  77  69  76 CALM      29.93F
CHATTANOOGA    MOSUNNY   91  55  29 NW7       29.88F
DALTON         SUNNY     88  55  33 CALM      29.89F
GADSDEN        CLOUDY    82  64  54 S7        29.89F
GOLDEN TRNGL   MOSUNNY   79  66  65 E9        29.89S
HALEYVILLE     FAIR      84  63  49 S6        29.93F
JACKSON TN     SUNNY     83  66  56 CALM      29.88F
MEMPHIS        MOSUNNY   85  66  53 S9        29.87S
NASHVILLE      MOSUNNY   88  60  38 NE8       29.89F
OXFORD MS      FAIR      84  66  54 SE5       29.89S
ROME           SUNNY     90  56  31 NW5       29.88F
SAVANNAH       SUNNY     84  64  51 SE3       29.88F
TUPELO         SUNNY     86  64  47 SE6       29.87
TUSCALOOSA     CLOUDY    74  67  78 NW3       29.90S
$$

...GULF COAST WEATHER...

CITY           SKY/WX    TMP DP  RH WIND       PRES   REMARKS
GULFPORT       SUNNY     84  69  60 S9        29.87F
PASCAGOULA     SUNNY     85  71  63 SW7       29.88F HX  90
MOBILE         CLOUDY    81  71  71 E8        29.90S
GULF SHORES    PTCLDY    78  66  68 CALM      29.90F
PENSACOLA      PTSUNNY   83  67  58 NE5       29.89F
DESTIN         CLOUDY    84  75  74 VRB5      29.90F HX  92
PANAMA CITY    MOSUNNY   82  75  79 SW10      29.90F
APPALACHICOLA  SUNNY     84  75  74 W14       29.90S HX  92
$$







000
ASUS44 KHUN 312110
RWRHUN

WEATHER ROUNDUP FOR THE TENNESSEE VALLEY
NATIONAL WEATHER SERVICE HUNTSVILLE AL
400 PM CDT TUE MAY 31 2016

ALZ001>004-312200-
NORTHWEST ALABAMA

CITY           SKY/WX    TMP DP  RH WIND       PRES   REMARKS
SHOALS AIRPORT CLOUDY    90  56  31 VRB6      29.92F
$$

ALZ005>007-016-312200-
NORTH CENTRAL ALABAMA

CITY           SKY/WX    TMP DP  RH WIND       PRES   REMARKS
DECATUR AP     MOSUNNY   87  64  46 W14       29.91F
HUNTSVILLE AP  PTSUNNY   92  60  34 NW6       29.90F HX  91
HUN NWS/UAH      N/A     91  55  29 N5          N/A
MERIDIANVILLE  PTSUNNY   90  43  19 CALM      29.91F
REDSTONE ARSN  MOSUNNY   89  61  37 VRB3      29.89F
VINEMONT AP    FAIR      88  65  46 W6        29.94F
$$

ALZ008>010-312200-
NORTHEAST ALABAMA

CITY           SKY/WX    TMP DP  RH WIND       PRES   REMARKS
FORT PAYNE     MOSUNNY   88  55  33 SE8       29.90F
SCOTTSBORO AP  PTSUNNY   90  59  35 E5        29.90F
VALLEY HEAD      N/A     88 N/A N/A MISG        N/A
$$

TNZ076-096-097-312200-
SOUTHEASTERN MIDDLE TENNESSEE

CITY           SKY/WX    TMP DP  RH WIND       PRES   REMARKS
TULLAHOMA      SUNNY     88  55  33 N5        29.94F
WINCHESTER     SUNNY     88  57  35 W5        29.92F
$$

...SURROUNDING SITES...

CITY           SKY/WX    TMP DP  RH WIND       PRES   REMARKS
ATLANTA        LGT RAIN  89  58  34 SW3       29.91F
ANNISTON       SUNNY     93  53  25 VRB3      29.89F HX  90
BIRMINGHAM     CLOUDY    77  63  61 NE5       29.94F
CHATTANOOGA    PTSUNNY   92  54  27 NE7       29.90F HX  90
DALTON         MOSUNNY   90  55  31 W5        29.90F
GADSDEN        SUNNY     91  62  37 CALM      29.89F HX  91
GOLDEN TRNGL   MOSUNNY   88  64  45 NE5       29.89F
HALEYVILLE     FAIR      81  63  54 NW6       29.95F
JACKSON TN     MOSUNNY   82  65  56 S5        29.90F
MEMPHIS        MOSUNNY   84  66  54 SW6       29.89F
NASHVILLE      PTSUNNY   89  58  34 NE8       29.91F
OXFORD MS      FAIR      82  66  57 SE3       29.90F
ROME           MOSUNNY   89  58  34 NW8       29.89F
SAVANNAH       SUNNY     82  66  57 VRB5      29.90F
TUPELO         SUNNY     87  63  44 CALM      29.88F
TUSCALOOSA     CLOUDY    76  65  68 E7        29.91S
$$

...GULF COAST WEATHER...

CITY           SKY/WX    TMP DP  RH WIND       PRES   REMARKS
GULFPORT       SUNNY     86  68  54 SW8       29.89F
PASCAGOULA     SUNNY     87  71  58 S10G17    29.89F HX  93
MOBILE         CLOUDY    84  71  65 S9        29.90F
GULF SHORES    CLEAR     86  74  66 S13G20    29.92R HX  94
DESTIN         CLOUDY    84  76  76 SW5       29.92F HX  93
APPALACHICOLA  PTSUNNY   84  76  76 W13       29.92S HX  93
$$







000
ASUS44 KHUN 311810
RWRHUN

WEATHER ROUNDUP FOR THE TENNESSEE VALLEY
NATIONAL WEATHER SERVICE HUNTSVILLE AL
100 PM CDT TUE MAY 31 2016

ALZ001>004-311900-
NORTHWEST ALABAMA

CITY           SKY/WX    TMP DP  RH WIND       PRES   REMARKS
RUSSELLVILLE     N/A     82 N/A N/A MISG        N/A
SHOALS AIRPORT CLOUDY    85  64  49 W16       29.99S
6HR MIN TEMP:  68; 6HR MAX TEMP:  89;

SHOALS TVA RES   N/A     82 N/A N/A MISG        N/A
$$

ALZ005>007-016-311900-
NORTH CENTRAL ALABAMA

CITY           SKY/WX    TMP DP  RH WIND       PRES   REMARKS
CULLMAN AG STN   N/A     88 N/A N/A W3          N/A
DECATUR AP     SUNNY     90  60  36 VRB3      29.96F
6HR MIN TEMP:  69; 6HR MAX TEMP:  90;

HUNTSVILLE AP  MOSUNNY   91  56  30 VRB3      29.95F
6HR MIN TEMP:  71; 6HR MAX TEMP:  92;

HUN NWS/UAH      N/A     89  54  30 W7          N/A
MERIDIANVILLE  PTSUNNY   88  50  27 NW3       29.96F
REDSTONE ARSN  MOSUNNY   89  62  39 VRB3      29.94F
VINEMONT AP    FAIR      90  60  36 W6        29.99F
$$

ALZ008>010-311900-
NORTHEAST ALABAMA

CITY           SKY/WX    TMP DP  RH WIND       PRES   REMARKS
FORT PAYNE     MOSUNNY   88  55  33 CALM      29.96S
SCOTTSBORO AP  MOSUNNY   86  63  45 SE6       29.96F
SCOTTSBORO HCN   N/A     88 N/A N/A MISG        N/A
VALLEY HEAD      N/A     88 N/A N/A MISG        N/A
$$

TNZ076-096-097-311900-
SOUTHEASTERN MIDDLE TENNESSEE

CITY           SKY/WX    TMP DP  RH WIND       PRES   REMARKS
TULLAHOMA      SUNNY     86  54  32 NW6       30.00S
WINCHESTER     SUNNY     88  57  35 W9        29.97F
$$

...SURROUNDING SITES...

CITY           SKY/WX    TMP DP  RH WIND       PRES   REMARKS
ATLANTA        PTSUNNY   88  60  38 VRB3      29.96F
ANNISTON       PTSUNNY   90  60  36 VRB7      29.95F
BIRMINGHAM     MOSUNNY   92  59  33 N10       29.97F HX  91
CHATTANOOGA    PTSUNNY   90  56  31 NW8       29.96F
DALTON         MOSUNNY   86  59  39 SE3       29.96F
GADSDEN        PTSUNNY   89  63  41 VRB5      29.95F HX  90
GOLDEN TRNGL   MOSUNNY   90  66  45 N12       29.95F HX  92
HALEYVILLE     FAIR      82  66  58 NW10      30.01F
JACKSON TN     CLOUDY    79  66  64 NW5       29.97F
MEMPHIS        CLOUDY    80  66  62 SE5       29.96F
NASHVILLE      PTSUNNY   87  59  38 VRB3      29.97F
OXFORD MS      FAIR      73  66  78 SE5       29.98F
ROME           SUNNY     91  58  32 VRB5      29.95F HX  90
SAVANNAH       PTSUNNY   77  68  73 CALM      29.97F
TUPELO         CLOUDY    77  66  68 E3        29.97F
TUSCALOOSA     PTSUNNY   90  64  42 W10       29.93F HX  91
$$

...GULF COAST WEATHER...

CITY           SKY/WX    TMP DP  RH WIND       PRES   REMARKS
GULFPORT       MOSUNNY   86  70  58 S8        29.95S HX  90
PASCAGOULA     PTSUNNY   87  69  54 VRB3      29.95S HX  91
MOBILE         PTSUNNY   88  69  53 VRB3      29.95F HX  92
GULF SHORES    CLEAR     88  73  61 S8G17     29.95S HX  95
PENSACOLA      PTSUNNY   88  72  58 S13       29.95S HX  94
DESTIN         SUNNY     88  77  69 S8        29.94F HX 100
PANAMA CITY    MOSUNNY   84  76  75 SW12      29.95F HX  93
APPALACHICOLA  CLOUDY    87  75  67 SW8       29.95F HX  96
$$







000
ASUS44 KHUN 311510
RWRHUN

WEATHER ROUNDUP FOR THE TENNESSEE VALLEY
NATIONAL WEATHER SERVICE HUNTSVILLE AL
1000 AM CDT TUE MAY 31 2016

ALZ001>004-311600-
NORTHWEST ALABAMA

CITY           SKY/WX    TMP DP  RH WIND       PRES   REMARKS
COURTLAND HCN    N/A     81 N/A N/A CALM        N/A
RUSSELLVILLE     N/A     82 N/A N/A MISG        N/A
SHOALS AIRPORT SUNNY     84  60  44 VRB3      29.98F
SHOALS TVA RES   N/A     81 N/A N/A MISG        N/A
$$

ALZ005>007-016-311600-
NORTH CENTRAL ALABAMA

CITY           SKY/WX    TMP DP  RH WIND       PRES   REMARKS
CULLMAN AG STN   N/A     82 N/A N/A CALM        N/A
DECATUR AP     SUNNY     82  62  50 CALM      29.98F
HUNTSVILLE AP  CLOUDY    83  60  45 VRB3      29.98S
HUN NWS/UAH      N/A     83  61  47 S1          N/A
MERIDIANVILLE  PTSUNNY   79  55  44 CALM      29.99S
REDSTONE ARSN  CLOUDY    80  65  59 VRB3      29.97F
VINEMONT AP    FAIR      83  64  52 E3        30.01S
$$

ALZ008>010-311600-
NORTHEAST ALABAMA

CITY           SKY/WX    TMP DP  RH WIND       PRES   REMARKS
FORT PAYNE     SUNNY     82  57  42 E6        29.98F
SCOTTSBORO AP  SUNNY     81  64  57 CALM      29.99S
SCOTTSBORO HCN   N/A     79 N/A N/A MISG        N/A
$$

TNZ076-096-097-311600-
SOUTHEASTERN MIDDLE TENNESSEE

CITY           SKY/WX    TMP DP  RH WIND       PRES   REMARKS
TULLAHOMA      SUNNY     81  63  54 E5        30.01S
WINCHESTER     SUNNY     82  64  54 CALM      29.99F
$$

...SURROUNDING SITES...

CITY           SKY/WX    TMP DP  RH WIND       PRES   REMARKS
ATLANTA        PTSUNNY   83  64  52 E8        29.99F
ANNISTON       SUNNY     83  65  54 E6        29.98S
BIRMINGHAM     MOSUNNY   86  64  47 SE6       29.99F
CHATTANOOGA    PTSUNNY   83  63  50 N6        29.99F
DALTON         SUNNY     79  64  61 CALM      30.00S
GADSDEN        SUNNY     83  66  56 E6        29.98F
GOLDEN TRNGL   PTSUNNY   82  66  57 N12       29.99R
HALEYVILLE     FAIR      83  65  54 VRB3      30.00F
JACKSON TN     CLOUDY    74  67  78 NW6       29.99F
MEMPHIS        CLOUDY    74  68  81 S7        29.98F
NASHVILLE      CLOUDY    81  64  56 CALM      30.00S
OXFORD MS      FAIR      68  64  88 CALM      30.01S
ROME           SUNNY     81  64  56 VRB6      29.98F
SAVANNAH       MOSUNNY   79  64  61 VRB5      29.98F
TUPELO         LGT RAIN  69  65  86 E7        30.00R FOG
TUSCALOOSA     SUNNY     86  66  51 CALM      29.96S
$$

...GULF COAST WEATHER...

CITY           SKY/WX    TMP DP  RH WIND       PRES   REMARKS
GULFPORT       SUNNY     84  70  62 CALM      29.95F
PASCAGOULA     SUNNY     84  71  65 NE6       29.96S
MOBILE         PTSUNNY   85  70  60 NE6       29.97S
GULF SHORES    SUNNY     83  73  70 CALM      29.96S
PENSACOLA      PTSUNNY   84  71  65 NW5       29.95F
DESTIN         SUNNY     85  75  72 SW5       29.96S HX  93
PANAMA CITY    PTSUNNY   84  75  74 W10       29.97R HX  92
APPALACHICOLA  MOSUNNY   85  76  74 SW8       29.97R HX  94
$$







000
ASUS44 KHUN 311310
RWRHUN

WEATHER ROUNDUP FOR THE TENNESSEE VALLEY
NATIONAL WEATHER SERVICE HUNTSVILLE AL
800 AM CDT TUE MAY 31 2016

ALZ001>004-311400-
NORTHWEST ALABAMA

CITY           SKY/WX    TMP DP  RH WIND       PRES   REMARKS
SHOALS AIRPORT CLOUDY    73  64  73 CALM      29.98R
$$

ALZ005>007-016-311400-
NORTH CENTRAL ALABAMA

CITY           SKY/WX    TMP DP  RH WIND       PRES   REMARKS
DECATUR AP     CLOUDY    72  64  76 CALM      29.98R
HUNTSVILLE AP  PTSUNNY   76  61  59 CALM      29.97S
HUN NWS/UAH      N/A     76  60  58 N1          N/A
MERIDIANVILLE  PTSUNNY   72  57  60 CALM      29.99S
REDSTONE ARSN  PTSUNNY   74  63  69 NE2       29.97R
VINEMONT AP    FAIR      73  65  76 CALM      30.00R
$$

ALZ008>010-311400-
NORTHEAST ALABAMA

CITY           SKY/WX    TMP DP  RH WIND       PRES   REMARKS
FORT PAYNE     SUNNY     70  59  68 NE3       29.99S
SCOTTSBORO AP  SUNNY     72  63  73 NE6       30.00S
SCOTTSBORO HCN   N/A     68 N/A N/A MISG        N/A
VALLEY HEAD      N/A     66 N/A N/A MISG        N/A
$$

TNZ076-096-097-311400-
SOUTHEASTERN MIDDLE TENNESSEE

CITY           SKY/WX    TMP DP  RH WIND       PRES   REMARKS
TULLAHOMA      SUNNY     73  63  68 VRB3      30.01S
WINCHESTER     SUNNY     72  61  68 CALM      30.00S
$$

...SURROUNDING SITES...

CITY           SKY/WX    TMP DP  RH WIND       PRES   REMARKS
ATLANTA        MOSUNNY   76  63  64 E8        29.99R
ANNISTON       SUNNY     73  63  70 E5        29.98R
BIRMINGHAM     PTSUNNY   81  64  56 CALM      29.99R
CHATTANOOGA    PTSUNNY   72  63  73 CALM      30.00R
DALTON         MOSUNNY   68  66  94 CALM      30.00R
GADSDEN        SUNNY     74  65  73 CALM      29.99R
GOLDEN TRNGL   SUNNY     79  64  61 NW5       29.96R
HALEYVILLE     FAIR      76  64  66 E3        30.00R
JACKSON TN     CLOUDY    72  67  84 S6        29.99R
MEMPHIS        LGT RAIN  72  69  90 CALM      29.98F
NASHVILLE      CLOUDY    73  62  68 CALM      30.00R
OXFORD MS      FAIR      64  64 100 SE6       30.01F
ROME           MOSUNNY   70  64  81 NE5       29.99R
SAVANNAH       SUNNY     70  64  83 CALM      29.97R
TUPELO         CLOUDY    74  64  71 W12G21    30.00R
TUSCALOOSA     SUNNY     77  68  73 CALM      29.95S
$$

...GULF COAST WEATHER...

CITY           SKY/WX    TMP DP  RH WIND       PRES   REMARKS
GULFPORT       MOSUNNY   77  71  82 NW3       29.95R
PASCAGOULA     SUNNY     78  72  81 CALM      29.96R
MOBILE         CLOUDY    77  72  84 CALM      29.96R
GULF SHORES    SUNNY     79  74  85 W9        29.95R
PENSACOLA      PTSUNNY   74  72  93 W3        29.95R
DESTIN         SUNNY     82  73  74 CALM      29.95R
PANAMA CITY    PTSUNNY   81  77  89 W5        29.96R
APPALACHICOLA  MOSUNNY   81  78  91 NW6       29.96R
$$







000
ASUS44 KHUN 311210
RWRHUN

WEATHER ROUNDUP FOR THE TENNESSEE VALLEY
NATIONAL WEATHER SERVICE HUNTSVILLE AL
700 AM CDT TUE MAY 31 2016

ALZ001>004-311300-
NORTHWEST ALABAMA

CITY           SKY/WX    TMP DP  RH WIND       PRES   REMARKS
COURTLAND HCN    N/A     64 N/A N/A CALM        N/A
RUSSELLVILLE     N/A     64 N/A N/A MISG        N/A
SHOALS AIRPORT CLOUDY    68  63  84 CALM      29.97S
6HR MIN TEMP:  66; 6HR MAX TEMP:  69;

SHOALS TVA RES   N/A     64 N/A N/A MISG        N/A
$$

ALZ005>007-016-311300-
NORTH CENTRAL ALABAMA

CITY           SKY/WX    TMP DP  RH WIND       PRES   REMARKS
CULLMAN AG STN   N/A     68 N/A N/A CALM        N/A
DECATUR AP     CLOUDY    69  61  75 CALM      29.97R
6HR MIN TEMP:  64; 6HR MAX TEMP:  71;

HUNTSVILLE AP  CLOUDY    71  61  70 CALM      29.97R
6HR MIN TEMP:  64; 6HR MAX TEMP:  72;

HUN NWS/UAH      N/A     73  59  62 NE2         N/A
MERIDIANVILLE  MOSUNNY   64  59  82 CALM      29.99R
REDSTONE ARSN  CLOUDY    70  63  79 CALM      29.96S
VINEMONT AP    FAIR      71  63  75 CALM      29.99S
$$

ALZ008>010-311300-
NORTHEAST ALABAMA

CITY           SKY/WX    TMP DP  RH WIND       PRES   REMARKS
FORT PAYNE     SUNNY     63  57  82 CALM      29.98R
SCOTTSBORO AP  SUNNY     66  63  88 NE5       29.99R
SCOTTSBORO HCN   N/A     63 N/A N/A MISG        N/A
VALLEY HEAD      N/A     61 N/A N/A MISG        N/A
$$

TNZ076-096-097-311300-
SOUTHEASTERN MIDDLE TENNESSEE

CITY           SKY/WX    TMP DP  RH WIND       PRES   REMARKS
TULLAHOMA      SUNNY     66  64  94 CALM      30.00S
WINCHESTER     SUNNY     63  61  94 CALM      29.99S
$$

...SURROUNDING SITES...

CITY           SKY/WX    TMP DP  RH WIND       PRES   REMARKS
ATLANTA        PTSUNNY   74  62  66 E9        29.98R
ANNISTON       SUNNY     68  63  84 E3        29.97R
BIRMINGHAM     PTSUNNY   75  65  70 CALM      29.98R
CHATTANOOGA    PTSUNNY   67  63  87 CALM      29.99R
DALTON         MOSUNNY   63  63 100 CALM      29.99R
GADSDEN        SUNNY     68  64  87 CALM      29.98R
GOLDEN TRNGL   SUNNY     70  64  83 CALM      29.94S
HALEYVILLE     FAIR      67  64  90 MISG      29.99R
JACKSON TN     CLOUDY    69  66  90 CALM      29.96S
MEMPHIS        RAIN      70  67  90 CALM      29.99F FOG
NASHVILLE      CLOUDY    68  63  84 CALM      29.99R
OXFORD MS      LGT RAIN  64  64 100 NE6       30.02R
ROME           MOSUNNY   65  62  90 NE3       29.97R
SAVANNAH       SUNNY     66  64  94 CALM      29.96S
TUPELO         CLOUDY    73  62  68 VRB3      29.96R
TUSCALOOSA     SUNNY     68  67  96 CALM      29.95R
$$

...GULF COAST WEATHER...

CITY           SKY/WX    TMP DP  RH WIND       PRES   REMARKS
GULFPORT       CLOUDY    74  72  93 CALM      29.93S
PASCAGOULA     SUNNY     71  70  96 CALM      29.95R
MOBILE         MOSUNNY   73  71  93 CALM      29.95S
GULF SHORES    MOSUNNY   73  73 100 NW7       29.95R
PENSACOLA      PTSUNNY   74  72  93 NW3       29.94R
DESTIN         CLOUDY    79  72  79 W3        29.94R
PANAMA CITY    SUNNY     80  76  89 W5        29.94R
APPALACHICOLA  SUNNY     78  77  96 W5        29.94S
$$







000
ASUS44 KHUN 311110
RWRHUN

WEATHER ROUNDUP FOR THE TENNESSEE VALLEY
NATIONAL WEATHER SERVICE HUNTSVILLE AL
600 AM CDT TUE MAY 31 2016

ALZ001>004-311200-
NORTHWEST ALABAMA

CITY           SKY/WX    TMP DP  RH WIND       PRES   REMARKS
COURTLAND HCN    N/A     64 N/A N/A CALM        N/A
RUSSELLVILLE     N/A     63 N/A N/A MISG        N/A
SHOALS AIRPORT CLOUDY    66  62  87 CALM      29.97R
SHOALS TVA RES   N/A     64 N/A N/A MISG        N/A
$$

ALZ005>007-016-311200-
NORTH CENTRAL ALABAMA

CITY           SKY/WX    TMP DP  RH WIND       PRES   REMARKS
CULLMAN AG STN   N/A     63 N/A N/A CALM        N/A
DECATUR AP     CLOUDY    65  61  87 CALM      29.96R
HUNTSVILLE AP  CLOUDY    67  60  78 CALM      29.96R
HUN NWS/UAH      N/A     69  58  67 CALM        N/A
MERIDIANVILLE  CLOUDY    63  55  77 CALM      29.97R
REDSTONE ARSN  CLOUDY    66  60  81 CALM      29.96R
VINEMONT AP    FAIR      62  60  94 CALM      29.99R
$$

ALZ008>010-311200-
NORTHEAST ALABAMA

CITY           SKY/WX    TMP DP  RH WIND       PRES   REMARKS
FORT PAYNE     CLEAR     59  55  88 CALM      29.97R
SCOTTSBORO AP  CLEAR     63  63 100 CALM      29.98R
SCOTTSBORO HCN   N/A     61 N/A N/A MISG        N/A
VALLEY HEAD      N/A     59 N/A N/A MISG        N/A
$$

TNZ076-096-097-311200-
SOUTHEASTERN MIDDLE TENNESSEE

CITY           SKY/WX    TMP DP  RH WIND       PRES   REMARKS
TULLAHOMA      CLEAR     57  57 100 CALM      29.99S
WINCHESTER     CLEAR     57  57 100 CALM      29.99R
$$

...SURROUNDING SITES...

CITY           SKY/WX    TMP DP  RH WIND       PRES   REMARKS
ATLANTA        MOCLDY    72  61  68 NE7       29.96R
ANNISTON       CLEAR     65  62  90 CALM      29.95R
BIRMINGHAM     MOCLDY    69  65  86 CALM      29.96R
CHATTANOOGA    CLOUDY    66  63  90 CALM      29.97R
DALTON         CLEAR     61  61 100 CALM      29.97R
GADSDEN        CLEAR     63  62  97 CALM      29.96R
GOLDEN TRNGL   CLEAR     68  63  83 W3        29.93R
HALEYVILLE     FAIR      63  61  93 CALM      29.98R
JACKSON TN     PTCLDY    68  65  90 CALM      29.96R
MEMPHIS        RAIN      70  66  88 W7        30.00R FOG
NASHVILLE      CLOUDY    65  61  87 CALM      29.98R
OXFORD MS      LGT RAIN  66  64  94 N7        29.98F
ROME           CLEAR     63  61  93 NE3       29.96R
SAVANNAH       CLEAR     64  63  94 CALM      29.95S
TUPELO         CLOUDY    70  63  78 N5        29.93R
TUSCALOOSA     PTCLDY    69  67  93 CALM      29.93R
$$

...GULF COAST WEATHER...

CITY           SKY/WX    TMP DP  RH WIND       PRES   REMARKS
GULFPORT       PTCLDY    73  71  93 CALM      29.93R
PASCAGOULA     PTCLDY    67  66  97 CALM      29.94R
MOBILE         PTCLDY    69  69 100 CALM      29.95R
GULF SHORES    FOG       70  70 100 E7        29.93R VSB<1/4
PENSACOLA      MOCLDY    72  69  90 CALM      29.92
DESTIN         PTCLDY    76  72  87 CALM      29.92R
PANAMA CITY    PTCLDY    77  75  93 CALM      29.93R
APPALACHICOLA  CLEAR     76  76 100 W6        29.94R
$$







000
ASUS44 KHUN 310310
RWRHUN

WEATHER ROUNDUP FOR THE TENNESSEE VALLEY
NATIONAL WEATHER SERVICE HUNTSVILLE AL
1000 PM CDT MON MAY 30 2016

ALZ001>004-310400-
NORTHWEST ALABAMA

CITY           SKY/WX    TMP DP  RH WIND       PRES   REMARKS
COURTLAND HCN    N/A     73 N/A N/A CALM        N/A
RUSSELLVILLE     N/A     68 N/A N/A MISG        N/A
SHOALS AIRPORT CLEAR     77  60  55 N3        29.99R
SHOALS TVA RES   N/A     79 N/A N/A MISG        N/A
$$

ALZ005>007-016-310400-
NORTH CENTRAL ALABAMA

CITY           SKY/WX    TMP DP  RH WIND       PRES   REMARKS
CULLMAN AG STN   N/A     70 N/A N/A CALM        N/A
DECATUR AP     CLEAR     74  61  63 N7        29.98R
HUNTSVILLE AP  PTCLDY    80  58  46 N8        29.97R
HUN NWS/UAH      N/A     80  56  42 NE2         N/A
MERIDIANVILLE  PTCLDY    72  55  56 CALM      29.99R
VINEMONT AP    FAIR      68  61  78 CALM      30.01R
$$

ALZ008>010-310400-
NORTHEAST ALABAMA

CITY           SKY/WX    TMP DP  RH WIND       PRES   REMARKS
FORT PAYNE     PTCLDY    70  59  68 CALM      29.97S
SCOTTSBORO AP  PTCLDY    73  64  73 CALM      29.98R
SCOTTSBORO HCN   N/A     70 N/A N/A MISG        N/A
VALLEY HEAD      N/A     68 N/A N/A MISG        N/A
$$

TNZ076-096-097-310400-
SOUTHEASTERN MIDDLE TENNESSEE

CITY           SKY/WX    TMP DP  RH WIND       PRES   REMARKS
TULLAHOMA      CLEAR     66  63  88 CALM      30.02R
WINCHESTER     CLEAR     72  61  68 CALM      30.00S
$$

...SURROUNDING SITES...

CITY           SKY/WX    TMP DP  RH WIND       PRES   REMARKS
ATLANTA        MOCLDY    79  59  50 CALM      29.96R
ANNISTON       CLEAR     74  63  68 CALM      29.96R
BIRMINGHAM     PTCLDY    78  66  66 CALM      29.99R
CHATTANOOGA    PTCLDY    76  60  57 CALM      29.97R
DALTON         CLEAR     68  68 100 CALM      29.97S
GADSDEN        CLEAR     71  66  84 SW3       29.96R
GOLDEN TRNGL   PTCLDY    79  64  61 NW3       29.95S
HALEYVILLE     FAIR      71  63  75 CALM      30.02R
JACKSON TN     CLOUDY    70  66  87 CALM      29.98R
MEMPHIS        CLOUDY    82  63  52 E3        29.97R
NASHVILLE      PTCLDY    76  58  53 N3        29.99R
OXFORD MS      FAIR      72  66  83 CALM      29.99S
ROME           CLEAR     71  64  78 CALM      29.96R
SAVANNAH       CLEAR     68  66  94 CALM      29.97S
TUPELO         CLEAR     77  62  59 N3        29.97R
TUSCALOOSA     CLEAR     76  67  73 CALM      29.95R
$$

...GULF COAST WEATHER...

CITY           SKY/WX    TMP DP  RH WIND       PRES   REMARKS
GULFPORT       CLOUDY    76  73  91 SW3       29.94S
PASCAGOULA     MOCLDY    70  69  97 CALM      29.95F
MOBILE         PTCLDY    72  69  90 W5        29.97R
GULF SHORES    CLOUDY    78  76  93 W7        29.96R
DESTIN         CLEAR     82  78  88 VRB5      29.96R HX  91
APPALACHICOLA  MOCLDY    77  75  93 W3        29.95R
$$







    US Dept of Commerce
    National Oceanic and Atmospheric Administration
    National Weather Service
    1325 East West Highway
    Silver Spring, MD 20910
    Page Author: NWS Internet Services Team
Disclaimer
Information Quality
Credits
Glossary
Privacy Policy
Freedom of Information Act (FOIA)
About Us
Career Opportunities